• In Österreich
  • Länderverzeichnis
  • Für 7 Tage
  • Wassertemperatur
  • Satellitenkarten
  • Wetterkarte
  • News
  • Widgets
  • user-avatar
    Anmelden

    Stündliche Wetter Gori

    Heute, 21 September, Freitag

    Zeit Temperatur Niederschläge Wind Luftdruck Luftfeuchtigkeit
    00:00 +16°C° 0 mm 2 m/S 703 mmHg 84%
    01:00 +16°C° 0 mm 2 m/S 702 mmHg 84%
    02:00 +16°C° 0 mm 2 m/S 702 mmHg 85%
    03:00 +15°C° 0 mm 2 m/S 702 mmHg 86%
    04:00 +15°C° 0 mm 2 m/S 702 mmHg 86%
    05:00 +15°C° 0 mm 2 m/S 702 mmHg 86%
    06:00 +15°C° 0 mm 2 m/S 702 mmHg 86%
    07:00 +17°C° 0 mm 2 m/S 702 mmHg 79%
    08:00 +19°C° 0 mm 2 m/S 702 mmHg 71%
    09:00 +20°C° 0 mm 3 m/S 702 mmHg 64%
    10:00 +22°C° 0 mm 3 m/S 702 mmHg 59%
    11:00 +24°C° 0 mm 3 m/S 702 mmHg 54%
    12:00 +26°C° 0 mm 3 m/S 702 mmHg 49%
    13:00 +26°C° 0 mm 3 m/S 702 mmHg 48%
    14:00 +26°C° 0 mm 3 m/S 702 mmHg 47%
    15:00 +27°C° 0 mm 2 m/S 702 mmHg 46%
    16:00 +25°C° 0.2 mm 2 m/S 702 mmHg 53%
    17:00 +23°C° 0.2 mm 2 m/S 702 mmHg 59%
    18:00 +21°C° 0.2 mm 1 m/S 701 mmHg 66%
    19:00 +20°C° 0 mm 1 m/S 702 mmHg 69%
    20:00 +20°C° 0 mm 1 m/S 702 mmHg 71%
    21:00 +19°C° 0 mm 1 m/S 702 mmHg 74%
    22:00 +19°C° 0 mm 1 m/S 702 mmHg 74%
    23:00 +17°C° 0 mm 2 m/S 702 mmHg 74%

    Morgen, 22 September, Samstag

    Zeit Temperatur Niederschläge Wind Luftdruck Luftfeuchtigkeit
    00:00 +17°C° 0 mm 2 m/S 702 mmHg 75%
    01:00 +17°C° 0 mm 2 m/S 702 mmHg 76%
    02:00 +16°C° 0 mm 2 m/S 702 mmHg 76%
    03:00 +16°C° 0 mm 2 m/S 702 mmHg 77%
    04:00 +16°C° 0.1 mm 2 m/S 702 mmHg 78%
    05:00 +16°C° 0.1 mm 2 m/S 702 mmHg 78%
    06:00 +16°C° 0.1 mm 2 m/S 702 mmHg 78%
    07:00 +17°C° 0.1 mm 2 m/S 702 mmHg 73%
    08:00 +19°C° 0.1 mm 2 m/S 703 mmHg 68%
    09:00 +20°C° 0.1 mm 3 m/S 703 mmHg 62%
    10:00 +21°C° 0.1 mm 3 m/S 703 mmHg 60%
    11:00 +22°C° 0.1 mm 3 m/S 702 mmHg 57%
    12:00 +24°C° 0.1 mm 3 m/S 702 mmHg 54%
    13:00 +24°C° 0.2 mm 3 m/S 702 mmHg 55%
    14:00 +25°C° 0.2 mm 3 m/S 702 mmHg 55%
    15:00 +25°C° 0.2 mm 3 m/S 702 mmHg 55%
    16:00 +22°C° 0.2 mm 3 m/S 702 mmHg 61%
    17:00 +21°C° 0.2 mm 2 m/S 701 mmHg 67%
    18:00 +19°C° 0.2 mm 2 m/S 701 mmHg 73%
    19:00 +18°C° 0 mm 2 m/S 701 mmHg 76%
    20:00 +19°C° 0 mm 1 m/S 702 mmHg 78%
    21:00 +18°C° 0 mm 1 m/S 702 mmHg 81%
    22:00 +18°C° 0 mm 1 m/S 702 mmHg 80%
    23:00 +16°C° 0 mm 1 m/S 702 mmHg 80%

    übermorgen, 23 September, Sonntag

    Zeit Temperatur Niederschläge Wind Luftdruck Luftfeuchtigkeit
    00:00 +16°C° 0 mm 1 m/S 702 mmHg 80%
    01:00 +16°C° 0 mm 1 m/S 702 mmHg 79%
    02:00 +16°C° 0 mm 1 m/S 701 mmHg 78%
    03:00 +16°C° 0 mm 1 m/S 701 mmHg 77%
    04:00 +16°C° 0 mm 1 m/S 701 mmHg 78%
    05:00 +15°C° 0 mm 1 m/S 701 mmHg 78%
    06:00 +15°C° 0 mm 1 m/S 701 mmHg 79%
    07:00 +18°C° 0 mm 1 m/S 701 mmHg 72%
    08:00 +19°C° 0 mm 2 m/S 702 mmHg 66%
    09:00 +21°C° 0 mm 2 m/S 702 mmHg 59%
    10:00 +23°C° 0 mm 2 m/S 702 mmHg 56%
    11:00 +24°C° 0 mm 2 m/S 702 mmHg 52%
    12:00 +26°C° 0 mm 2 m/S 701 mmHg 48%
    13:00 +26°C° 0.2 mm 2 m/S 701 mmHg 48%
    14:00 +26°C° 0.2 mm 3 m/S 701 mmHg 47%
    15:00 +26°C° 0.2 mm 3 m/S 701 mmHg 47%
    16:00 +24°C° 0.2 mm 3 m/S 701 mmHg 55%
    17:00 +21°C° 0.2 mm 3 m/S 701 mmHg 63%
    18:00 +19°C° 0.2 mm 2 m/S 701 mmHg 71%
    19:00 +18°C° 0 mm 2 m/S 701 mmHg 77%
    20:00 +17°C° 0 mm 2 m/S 701 mmHg 83%
    21:00 +16°C° 0 mm 2 m/S 701 mmHg 89%
    22:00 +16°C° 0 mm 2 m/S 701 mmHg 89%
    23:00 +16°C° 0 mm 2 m/S 701 mmHg 90%

    24 September, Montag

    Zeit Temperatur Niederschläge Wind Luftdruck Luftfeuchtigkeit
    00:00 +16°C° 0 mm 2 m/S 701 mmHg 90%
    01:00 +15°C° 0 mm 2 m/S 701 mmHg 90%
    02:00 +15°C° 0 mm 2 m/S 701 mmHg 90%
    03:00 +15°C° 0 mm 2 m/S 701 mmHg 90%
    04:00 +15°C° 0.1 mm 2 m/S 701 mmHg 89%
    05:00 +15°C° 0.1 mm 2 m/S 701 mmHg 88%
    06:00 +15°C° 0.1 mm 2 m/S 701 mmHg 87%
    07:00 +16°C° 0 mm 3 m/S 701 mmHg 82%
    08:00 +17°C° 0 mm 3 m/S 702 mmHg 76%
    09:00 +18°C° 0 mm 3 m/S 702 mmHg 71%
    10:00 +18°C° 0.1 mm 4 m/S 702 mmHg 69%
    11:00 +19°C° 0.1 mm 4 m/S 702 mmHg 67%
    12:00 +19°C° 0.1 mm 4 m/S 701 mmHg 65%
    13:00 +19°C° 0.1 mm 4 m/S 701 mmHg 67%
    14:00 +19°C° 0.1 mm 4 m/S 701 mmHg 68%
    15:00 +17°C° 0.1 mm 5 m/S 701 mmHg 69%
    16:00 +17°C° 0 mm 4 m/S 701 mmHg 74%
    17:00 +17°C° 0 mm 3 m/S 701 mmHg 78%
    18:00 +16°C° 0 mm 2 m/S 701 mmHg 82%
    19:00 +15°C° 0 mm 2 m/S 701 mmHg 85%
    20:00 +14°C° 0 mm 2 m/S 701 mmHg 88%
    21:00 +14°C° 0 mm 2 m/S 701 mmHg 91%
    22:00 +13°C° 0 mm 1 m/S 701 mmHg 91%
    23:00 +13°C° 0 mm 1 m/S 700 mmHg 90%

    25 September, Dienstag

    Zeit Temperatur Niederschläge Wind Luftdruck Luftfeuchtigkeit
    00:00 +13°C° 0 mm 1 m/S 700 mmHg 89%
    01:00 +12°C° 0 mm 1 m/S 700 mmHg 87%
    02:00 +12°C° 0 mm 1 m/S 699 mmHg 86%
    03:00 +12°C° 0 mm 1 m/S 699 mmHg 84%
    04:00 +12°C° 0 mm 1 m/S 699 mmHg 83%
    05:00 +12°C° 0 mm 1 m/S 699 mmHg 81%
    06:00 +11°C° 0 mm 1 m/S 699 mmHg 79%
    07:00 +14°C° 0 mm 1 m/S 699 mmHg 70%
    08:00 +17°C° 0 mm 2 m/S 699 mmHg 61%
    09:00 +19°C° 0 mm 2 m/S 699 mmHg 52%
    10:00 +21°C° 0 mm 2 m/S 699 mmHg 47%
    11:00 +24°C° 0 mm 2 m/S 699 mmHg 42%
    12:00 +26°C° 0 mm 2 m/S 699 mmHg 37%
    13:00 +26°C° 0 mm 2 m/S 699 mmHg 36%
    14:00 +27°C° 0 mm 2 m/S 698 mmHg 35%
    15:00 +27°C° 0 mm 2 m/S 698 mmHg 33%
    16:00 +24°C° 0 mm 2 m/S 698 mmHg 40%
    17:00 +22°C° 0 mm 1 m/S 698 mmHg 47%
    18:00 +19°C° 0 mm 1 m/S 698 mmHg 54%
    19:00 +19°C° 0 mm 1 m/S 698 mmHg 56%
    20:00 +18°C° 0 mm 1 m/S 699 mmHg 58%
    21:00 +16°C° 0 mm 1 m/S 699 mmHg 60%
    22:00 +15°C° 0 mm 1 m/S 699 mmHg 61%
    23:00 +15°C° 0 mm 1 m/S 699 mmHg 62%

    26 September, Mittwoch

    Zeit Temperatur Niederschläge Wind Luftdruck Luftfeuchtigkeit
    00:00 +14°C° 0 mm 1 m/S 699 mmHg 62%
    01:00 +14°C° 0 mm 1 m/S 699 mmHg 63%
    02:00 +14°C° 0 mm 1 m/S 699 mmHg 65%
    03:00 +13°C° 0 mm 1 m/S 699 mmHg 66%
    04:00 +13°C° 0 mm 1 m/S 699 mmHg 66%
    05:00 +13°C° 0 mm 1 m/S 700 mmHg 66%
    06:00 +13°C° 0 mm 1 m/S 700 mmHg 67%
    07:00 +16°C° 0 mm 1 m/S 700 mmHg 59%
    08:00 +20°C° 0 mm 1 m/S 700 mmHg 52%
    09:00 +22°C° 0 mm 1 m/S 701 mmHg 44%
    10:00 +24°C° 0 mm 2 m/S 701 mmHg 41%
    11:00 +25°C° 0 mm 2 m/S 701 mmHg 39%
    12:00 +27°C° 0 mm 2 m/S 701 mmHg 36%
    13:00 +27°C° 0 mm 2 m/S 701 mmHg 37%
    14:00 +26°C° 0 mm 3 m/S 700 mmHg 37%
    15:00 +26°C° 0 mm 3 m/S 700 mmHg 38%
    16:00 +24°C° 0 mm 2 m/S 700 mmHg 45%
    17:00 +21°C° 0 mm 2 m/S 700 mmHg 53%
    18:00 +20°C° 0 mm 1 m/S 700 mmHg 60%
    19:00 +19°C° 0 mm 1 m/S 701 mmHg 63%
    20:00 +18°C° 0 mm 1 m/S 701 mmHg 66%
    21:00 +16°C° 0 mm 1 m/S 701 mmHg 69%
    22:00 +16°C° 0 mm 1 m/S 701 mmHg 70%
    23:00 +16°C° 0 mm 1 m/S 702 mmHg 71%
    Mehr zeigen